[ hide orbit diagram ]
For accurate long-term ephemerides, please instead use our Horizons system.This orbit viewer was implemented using two-body methods, and hence should not be used for determining accurate long-term trajectories (over several years or decades) or planetary encounter circumstances.
Orbital Elements at Epoch 2459200.5 (2020-Dec-17.0) TDB
Reference: JPL 24 (heliocentric ecliptic J2000)
Element | Value | Uncertainty (1-sigma) | Units |
e | .1577554616997018 | 4.7131e-08 | |
a | 2.599483069762428 | 1.3817e-08 | au |
q | 2.189400417911498 | 1.2144e-07 | au |
i | 14.46261884208937 | 4.7016e-06 | deg |
node | 6.409489778061502 | 1.3739e-05 | deg |
peri | 324.9546703995514 | 1.87e-05 | deg |
M | 130.0619159719905 | 1.2586e-05 | deg |
tp | 2458647.434506126584 (2019-Jun-12.93450613) | 5.3457e-05 | TDB |
period | 1530.836881084451 4.19 | 1.2205e-05 3.342e-08 | d yr |
n | .2351654865703096 | 1.8749e-09 | deg/d |
Q | 3.009565721613358 | 1.5997e-08 | au |
|
| | Orbit Determination Parameters
Additional Information
|
[ hide covariance matrix ]
Orbital Elements at Epoch 2457922.5 (2017-Jun-18.0) TDB
Reference: JPL 24 (heliocentric ecliptic J2000)
Element | Value | Uncertainty (1-sigma) | Units |
e | .1590704395417259 | 4.7185e-08 | |
q | 2.18482533094426 | 1.2175e-07 | au |
tp | 2458646.286875728225 (2019-Jun-11.78687573) | 5.3018e-05 | TDB |
node | 6.469535560720562 | 1.3718e-05 | deg |
peri | 324.7652558811274 | 1.8612e-05 | deg |
i | 14.47952708132912 | 4.7059e-06 | deg |
|
| | Orbit Determination Parameters
Additional Information
|
Orbit Covariance (6×6)
|
|
e |
q |
tp |
node |
peri |
i |
e |
2.226446098552159E-15 |
-5.71923197971466E-15 |
9.387920033926371E-13 |
1.612763757474212E-14 |
1.076722302872112E-13 |
2.89247209204978E-15 |
q |
-5.71923197971466E-15 |
1.48227339454263E-14 |
-2.453835028428214E-12 |
-4.331760273447352E-14 |
-3.012531954383235E-13 |
-6.762102661039926E-15 |
tp |
9.387920033926371E-13 |
-2.453835028428214E-12 |
2.810947482736198E-9 |
8.269448418215169E-12 |
6.608157000370675E-10 |
-1.875356907338738E-12 |
node |
1.612763757474212E-14 |
-4.331760273447352E-14 |
8.269448418215169E-12 |
1.881713929887992E-10 |
-1.799945332709188E-10 |
4.897948547847353E-12 |
peri |
1.076722302872112E-13 |
-3.012531954383235E-13 |
6.608157000370675E-10 |
-1.799945332709188E-10 |
3.464227322912899E-10 |
-5.469077205546533E-12 |
i |
2.89247209204978E-15 |
-6.762102661039926E-15 |
-1.875356907338738E-12 |
4.897948547847353E-12 |
-5.469077205546533E-12 |
2.214525556675395E-11 |
|
Physical Parameter Table
Parameter |
Symbol |
Value |
Units |
Sigma |
Reference |
Notes |
absolute magnitude |
H |
15.69 |
|
n/a |
E2021B55 |
|
|
101238 (1998 SQ79) Discovered 1998-Sep-26 by LINEAR at Socorro |
Reference: 20051019/Numbers.arc | Last Updated: 2005-10-26 |
|
[ show close-approach data ]
|